Voltar ao catálogo

STARLINK-34524

AtivoComunicaçõesVLEO
NORAD 64431·PAYLOAD·🇺🇸 United States

Lançado Jun 17, 2025 de Vandenberg Space Force Base

Loading…

Próximas Passagens (próximas 24 horas)

TLE

AtualizadoSource: CelesTrak SupGP

Época: Sep 14, 2026, 20:42 UTC

1 64431C 25129V   26257.86298611 -.00024170  00000+0 -81989-3 0  2570
2 64431  69.9994 315.7568 0003299 271.1393 208.3048 15.30409097    14

Acompanhe STARLINK-34524 em tempo real com AllMySat

Download on the App Store